TimeAEST,TemperatureF,Dew PointF,Humidity,Sea Level PressureIn,VisibilityMPH,Wind Direction,Wind SpeedMPH,Gust SpeedMPH,PrecipitationIn,Events,Conditions,WindDirDegrees,DateUTC
12:00 AM,74,71,88,30.11,,ESE,27.6,,,,,110,2013-05-08 14:00:00
12:00 AM,73.4,71.6,94,30.09,-9999.0,ESE,27.6,-,N/A,,Unknown,110,2013-05-08 14:00:00
12:30 AM,75.2,69.8,83,30.09,-9999.0,East,31.1,-,N/A,,Unknown,100,2013-05-08 14:30:00
1:00 AM,75.2,69.8,83,30.06,-9999.0,East,35.7,-,N/A,,Unknown,100,2013-05-08 15:00:00
1:30 AM,75.2,69.8,83,30.06,-9999.0,East,32.2,-,N/A,,Unknown,100,2013-05-08 15:30:00
2:00 AM,75.2,69.8,83,30.06,-9999.0,East,31.1,-,N/A,,Unknown,100,2013-05-08 16:00:00
2:30 AM,75.2,69.8,83,30.06,-9999.0,ESE,31.1,-,N/A,,Unknown,110,2013-05-08 16:30:00
3:00 AM,74,69,81,30.07,,ESE,29.9,,,,,110,2013-05-08 17:00:00
3:00 AM,73.4,69.8,88,30.06,-9999.0,ESE,29.9,-,N/A,,Unknown,110,2013-05-08 17:00:00
3:30 AM,73.4,69.8,88,30.06,-9999.0,ESE,33.4,-,N/A,,Unknown,110,2013-05-08 17:30:00
4:00 AM,73.4,68.0,83,30.06,-9999.0,ESE,32.2,-,N/A,,Unknown,110,2013-05-08 18:00:00
4:30 AM,73.4,68.0,83,30.06,-9999.0,ESE,32.2,-,N/A,,Unknown,110,2013-05-08 18:30:00
5:00 AM,75.2,68.0,78,30.09,-9999.0,ESE,29.9,-,N/A,,Unknown,110,2013-05-08 19:00:00
5:30 AM,73.4,66.2,78,30.09,-9999.0,ESE,32.2,-,N/A,,Unknown,110,2013-05-08 19:30:00
6:00 AM,74,67,72,30.11,,ESE,29.9,,,,,110,2013-05-08 20:00:00
6:00 AM,73.4,66.2,78,30.09,-9999.0,ESE,29.9,-,N/A,,Unknown,110,2013-05-08 20:00:00
6:30 AM,75.2,66.2,73,30.12,-9999.0,ESE,28.8,-,N/A,,Unknown,110,2013-05-08 20:30:00
7:00 AM,75.2,68.0,78,30.12,-9999.0,ESE,32.2,-,N/A,,Unknown,120,2013-05-08 21:00:00
7:30 AM,75.2,66.2,73,30.15,-9999.0,ESE,29.9,-,N/A,,Unknown,120,2013-05-08 21:30:00
8:00 AM,75.2,68.0,78,30.15,-9999.0,ESE,31.1,-,N/A,,Unknown,120,2013-05-08 22:00:00
8:30 AM,75.2,66.2,73,30.15,-9999.0,ESE,28.8,-,N/A,,Unknown,120,2013-05-08 22:30:00
9:00 AM,75,66,68,30.18,,ESE,27.6,,,,,120,2013-05-08 23:00:00
9:00 AM,75.2,66.2,73,30.18,-9999.0,ESE,27.6,-,N/A,,Unknown,110,2013-05-08 23:00:00
9:30 AM,75.2,68.0,78,30.18,-9999.0,ESE,25.3,-,N/A,,Unknown,120,2013-05-08 23:30:00
9:56 AM,73.4,68.0,83,30.15,-9999.0,ESE,26.5,41.4,N/A,,Unknown,110,2013-05-08 23:56:00
10:00 AM,71.6,68.0,88,30.18,-9999.0,ESE,28.8,41.4,N/A,,Unknown,110,2013-05-09 00:00:00
10:30 AM,73.4,66.2,78,30.15,-9999.0,ESE,31.1,-,N/A,,Unknown,110,2013-05-09 00:30:00
11:00 AM,75.2,64.4,69,30.15,-9999.0,ESE,32.2,-,N/A,,Unknown,120,2013-05-09 01:00:00
11:30 AM,75.2,68.0,78,30.15,-9999.0,ESE,28.8,-,N/A,,Unknown,120,2013-05-09 01:30:00
12:00 PM,76,66,65,30.14,,ESE,28.8,,,,,120,2013-05-09 02:00:00
12:00 PM,77.0,66.2,69,30.12,-9999.0,ESE,28.8,-,N/A,,Unknown,120,2013-05-09 02:00:00
12:30 PM,75.2,66.2,73,30.12,-9999.0,ESE,28.8,-,N/A,,Unknown,120,2013-05-09 02:30:00
1:00 PM,77.0,66.2,69,30.09,-9999.0,ESE,27.6,-,N/A,,Unknown,120,2013-05-09 03:00:00
1:30 PM,77.0,66.2,69,30.09,-9999.0,ESE,27.6,-,N/A,,Unknown,120,2013-05-09 03:30:00
2:00 PM,75.2,64.4,69,30.09,-9999.0,ESE,28.8,-,N/A,,Unknown,120,2013-05-09 04:00:00
2:30 PM,75.2,66.2,73,30.09,-9999.0,SE,26.5,-,N/A,,Unknown,130,2013-05-09 04:30:00
3:00 PM,75,69,75,30.08,,SE,27.6,,,,,130,2013-05-09 05:00:00
3:00 PM,75.2,68.0,78,30.06,-9999.0,SE,27.6,-,N/A,,Unknown,130,2013-05-09 05:00:00
3:30 PM,75.2,68.0,78,30.06,-9999.0,ESE,26.5,-,N/A,,Unknown,120,2013-05-09 05:30:00
4:00 PM,75.2,68.0,78,30.06,-9999.0,SE,25.3,-,N/A,,Unknown,130,2013-05-09 06:00:00
4:30 PM,75.2,68.0,78,30.09,-9999.0,SE,26.5,-,N/A,,Unknown,130,2013-05-09 06:30:00
5:00 PM,73.4,69.8,88,30.09,-9999.0,SE,25.3,-,N/A,,Unknown,130,2013-05-09 07:00:00
5:30 PM,71.6,69.8,94,30.09,-9999.0,SE,28.8,-,N/A,,Unknown,130,2013-05-09 07:30:00
6:00 PM,73,70,86,30.11,,SE,28.8,,,,,130,2013-05-09 08:00:00
6:00 PM,73.4,69.8,88,30.09,-9999.0,SE,28.8,-,N/A,,Unknown,130,2013-05-09 08:00:00
6:30 PM,73.4,69.8,88,30.12,-9999.0,SE,32.2,-,N/A,,Unknown,140,2013-05-09 08:30:00
7:00 PM,73.4,69.8,88,30.09,-9999.0,SE,33.4,-,N/A,,Unknown,130,2013-05-09 09:00:00
7:30 PM,73.4,69.8,88,30.12,-9999.0,SE,34.5,-,N/A,,Unknown,130,2013-05-09 09:30:00
8:00 PM,71.6,68.0,88,30.12,-9999.0,SE,31.1,-,N/A,,Unknown,130,2013-05-09 10:00:00
8:30 PM,73.4,69.8,88,30.15,-9999.0,SE,28.8,-,N/A,,Unknown,130,2013-05-09 10:30:00
9:00 PM,73,69,85,30.15,,SE,28.8,,,,,130,2013-05-09 11:00:00
9:00 PM,73.4,69.8,88,30.15,-9999.0,SE,28.8,-,N/A,,Unknown,130,2013-05-09 11:00:00
9:30 PM,73.4,69.8,88,30.15,-9999.0,SE,34.5,-,N/A,,Unknown,130,2013-05-09 11:30:00
10:00 PM,73.4,69.8,88,30.12,-9999.0,SE,35.7,-,N/A,,Unknown,130,2013-05-09 12:00:00
10:20 PM,71.6,69.8,94,30.12,-9999.0,SE,28.8,40.3,N/A,,Unknown,130,2013-05-09 12:20:00
10:30 PM,73.4,69.8,88,30.12,-9999.0,SE,32.2,-,N/A,,Unknown,130,2013-05-09 12:30:00
11:00 PM,73.4,69.8,88,30.12,-9999.0,SE,31.1,-,N/A,,Unknown,130,2013-05-09 13:00:00
11:30 PM,73.4,69.8,88,30.12,-9999.0,SE,29.9,-,N/A,,Unknown,130,2013-05-09 13:30:00